[[{"header":{"parameterUnit":"m.s-1","parameterCategory":1,"la1":30.2991,"la2":30.254,"lo1":-89.0895,"lo2":-89.0444,"dy":0.0017,"dx":0.0017,"nx":28,"ny":28,"refTime":"2024-07-23T09:00:00:Z","depth":0,"parameterNumber":2,"parameterNumberName":"U-component_of_WINDS"},"data":[0,0,0,0,0,0,0,0,0,0,0,0,0,0,0,0,0,0,0,0,0,0,0,0,0,0,0,0,0,0,0,0,0,0,0,0,0,0,0,0,0,0,0,0,0,0,0,0,0,0,0,0,0,0,0,0,0,0,0.0635,0.0635,0,0.0677,0.0677,0.0678,0.0679,0.0679,0.0678,0.0678,0.0721,0.0723,0.0724,0,0,0,0,0,0,0,0,0,0,0,0,0,0.0557,0.0558,0.0635,0.0636,0.0636,0.0677,0.0677,0.0678,0.0679,0.0679,0.0678,0.0678,0.072,0.0722,0.0724,0,0,0,0,0,0,0,0,0,0,0,0,0,0.0594,0.0559,0.0635,0.0642,0.0643,0.0677,0.0677,0.0678,0.068,0.0679,0.0678,0.0677,0.072,0.0722,0.0725,0.0755,0,0,0.0732,0.0733,0,0,0,0,0,0,0,0,0.0592,0.0597,0.064,0.0641,0.0642,0.0672,0.0666,0.0704,0.068,0.0666,0.0678,0.0677,0.0705,0.0709,0.0718,0.0757,0.0759,0.0732,0.0734,0.0735,0.0735,0,0,0,0,0,0,0,0.0589,0.0595,0.0652,0.0641,0.0642,0.0643,0.0647,0.0673,0.0689,0.0667,0.0667,0.0672,0.0706,0.0716,0.0719,0.0759,0.0732,0.0734,0.0736,0.0737,0.0826,0.0826,0,0,0,0,0,0,0.0585,0.0593,0.065,0.0653,0.0615,0.0645,0.065,0.0663,0.0689,0.0692,0.0672,0.0672,0.0712,0.0717,0.0721,0.0759,0.0735,0.0737,0.0738,0.0825,0.0826,0.0827,0,0,0,0,0,0,0.0584,0.059,0.0649,0.0623,0.063,0.0647,0.0662,0.0665,0.0675,0.0693,0.0696,0.068,0.0712,0.0718,0.0747,0.076,0.0738,0.074,0.0824,0.0825,0.0826,0.0834,0,0,0,0,0,0,0.0581,0.059,0.0601,0.0623,0.0632,0.0673,0.0663,0.0666,0.0679,0.0679,0.0701,0.0704,0.0712,0.0743,0.0749,0.0763,0.0742,0.0822,0.0824,0.0826,0.0833,0.0836,0.0838,0,0,0,0,0,0.0579,0.0602,0.0602,0.0609,0.0646,0.0674,0.0679,0.0687,0.068,0.0692,0.0704,0.0703,0.0758,0.0746,0.0753,0.0768,0.0822,0.0824,0.0826,0.0832,0.0835,0.0838,0,0,0,0,0,0,0.0581,0.0605,0.0605,0.0636,0.0653,0.0674,0.0689,0.0691,0.071,0.0709,0.0718,0.0723,0.0752,0.0763,0.0749,0.0799,0.0789,0.0792,0.0791,0.0795,0.0797,0.0794,0.0744,0,0,0,0,0,0.0585,0.0605,0.0625,0.065,0.0659,0.0673,0.0685,0.069,0.0708,0.0715,0.0729,0.0747,0.0768,0.0782,0.0802,0.0834,0.084,0.0848,0.0851,0.0853,0.0856,0.0875,0.0879,0.0833,0.0833,0.0833,0,0,0.0593,0.0609,0.0621,0.0651,0.0665,0.0686,0.0679,0.0701,0.0717,0.0719,0.0747,0.0758,0.0779,0.0809,0.0824,0.0819,0.087,0.0856,0.0857,0.0859,0.0877,0.0882,0.0885,0.0835,0.0835,0.0834,0,0,0.062,0.0633,0.0657,0.0671,0.0692,0.0701,0.0707,0.0728,0.0735,0.0764,0.0766,0.0785,0.0821,0.0836,0.0848,0.0881,0.0882,0.0887,0.0902,0.092,0.0923,0.0927,0.0939,0.0943,0.089,0.089,0.089,0,0.0628,0.066,0.0668,0.0691,0.0705,0.0707,0.0731,0.0744,0.0771,0.078,0.0775,0.0821,0.0834,0.0869,0.0877,0.0887,0.0894,0.0885,0.0922,0.0925,0.0929,0.0941,0.0945,0.0891,0.0891,0.0891,0.0891,0,0.0669,0.0691,0.0708,0.0734,0.0749,0.0772,0.0784,0.0799,0.0802,0.0812,0.0842,0.0859,0.0883,0.0891,0.0895,0.0927,0.0924,0.092,0.091,0.0933,0.0945,0.095,0.0892,0.0892,0.0891,0.0891,0,0,0.0698,0.0729,0.0735,0.0747,0.0771,0.0789,0.0812,0.0836,0.0849,0.0867,0.0888,0.0918,0.0915,0.0929,0.0935,0.095,0.0977,0.0945,0.0945,0.0951,0.1014,0.1017,0.1022,0.0977,0.0978,0.0978,0.1012,0,0.0728,0.077,0.0779,0.0815,0.0836,0.0839,0.086,0.0877,0.0887,0.0907,0.0918,0.094,0.0933,0.0942,0.0958,0.097,0.0989,0.0968,0.0996,0.0997,0.0992,0.1028,0.1032,0.1063,0.1017,0.1018,0.1018,0,0.0768,0.0788,0.0827,0.0849,0.0858,0.0877,0.09,0.0918,0.0938,0.0944,0.096,0.0964,0.0989,0.0978,0.1013,0.0998,0.101,0.1018,0.1019,0.1023,0.101,0.1034,0.1073,0.1078,0.1025,0.1025,0.1024,0,0.0787,0.0823,0.0851,0.0862,0.0888,0.0901,0.0913,0.0931,0.0946,0.0966,0.0975,0.0998,0.101,0.1028,0.1038,0.1029,0.1073,0.1062,0.1079,0.1079,0.1089,0.1088,0.1131,0.1095,0.1095,0.1095,0.1095,0,0.0819,0.0843,0.086,0.0878,0.0905,0.0914,0.0941,0.0952,0.0969,0.0989,0.0993,0.1012,0.1024,0.1044,0.1052,0.108,0.1086,0.1092,0.1094,0.1092,0.1091,0.1101,0.1099,0.1096,0.1096,0.1096,0.1096,0,0.0844,0.0857,0.0888,0.091,0.0917,0.0936,0.0955,0.0972,0.0983,0.1008,0.1014,0.103,0.1055,0.1067,0.1096,0.1102,0.1134,0.1134,0.1128,0.1129,0.1146,0.1144,0.1197,0.1205,0.1163,0.1163,0.1164,0,0.0865,0.0883,0.0908,0.0922,0.0934,0.0956,0.0971,0.0981,0.0996,0.1021,0.1035,0.106,0.108,0.1119,0.1134,0.1157,0.1158,0.1175,0.1162,0.1159,0.1159,0.1158,0.1161,0.1178,0.1178,0.1178,0.1179,0,0.09,0.0905,0.0926,0.095,0.0968,0.0987,0.1005,0.1016,0.103,0.1047,0.1072,0.1088,0.1119,0.1144,0.1168,0.118,0.1182,0.1183,0.1188,0.1187,0.1183,0.1186,0.1135,0.1182,0.1181,0.1181,0.1181,0.1181,0.0924,0.0941,0.0961,0.0985,0.1,0.1018,0.1036,0.1048,0.107,0.1096,0.1101,0.1128,0.1148,0.1181,0.1194,0.1216,0.1212,0.1219,0.1221,0.1223,0.1225,0.1179,0.122,0.122,0.122,0.122,0.122,0,0.096,0.0973,0.0995,0.1021,0.104,0.1041,0.1062,0.1077,0.1101,0.112,0.114,0.117,0.1194,0.121,0.1235,0.1249,0.125,0.1255,0.1254,0.1257,0.1226,0.1219,0.1254,0.1254,0.1254,0.1254,0.1254,0.1254,0.0981,0.101,0.1018,0.1055,0.1069,0.1095,0.1108,0.1124,0.1139,0.1172,0.1192,0.1203,0.1221,0.1247,0.127,0.1274,0.1283,0.1288,0.1292,0.1263,0.1259,0.1256,0.125,0.129,0.129,0.1322,0.1322,0.1322]},{"header":{"parameterUnit":"m.s-1","parameterCategory":1,"la1":30.2991,"la2":30.254,"lo1":-89.0895,"lo2":-89.0444,"dy":0.0017,"dx":0.0017,"nx":28,"ny":28,"refTime":"2024-07-23T09:00:00:Z","depth":0,"parameterNumber":3,"parameterNumberName":"V-component_of_WINDS"},"data":[0,0,0,0,0,0,0,0,0,0,0,0,0,0,0,0,0,0,0,0,0,0,0,0,0,0,0,0,0,0,0,0,0,0,0,0,0,0,0,0,0,0,0,0,0,0,0,0,0,0,0,0,0,0,0,0,0,0,1.4768,1.4771,0,1.5065,1.5068,1.5071,1.5211,1.5211,1.521,1.521,1.5524,1.5533,1.5541,0,0,0,0,0,0,0,0,0,0,0,0,0,1.4334,1.4341,1.4768,1.4772,1.4775,1.5064,1.5068,1.5072,1.5211,1.5211,1.521,1.521,1.5522,1.5532,1.5542,0,0,0,0,0,0,0,0,0,0,0,0,0,1.4566,1.4344,1.4767,1.4879,1.4892,1.5063,1.5068,1.5073,1.5211,1.5211,1.521,1.521,1.5518,1.5531,1.5543,1.5629,0,0,1.5583,1.5588,0,0,0,0,0,0,0,0,1.4553,1.4582,1.4859,1.4872,1.4886,1.51,1.5031,1.526,1.5211,1.509,1.521,1.521,1.5384,1.5408,1.5465,1.5644,1.5657,1.5584,1.5592,1.5597,1.5601,0,0,0,0,0,0,0,1.4536,1.457,1.4886,1.4863,1.488,1.4919,1.4951,1.5075,1.5236,1.5101,1.5111,1.5144,1.5392,1.5452,1.5473,1.5662,1.5583,1.5595,1.5603,1.5608,1.5932,1.5933,0,0,0,0,0,0,1.45,1.4555,1.4876,1.4895,1.4715,1.4926,1.4963,1.5032,1.5235,1.5265,1.5144,1.5149,1.543,1.5458,1.5485,1.5602,1.5597,1.5609,1.5616,1.5931,1.5932,1.5933,0,0,0,0,0,0,1.4491,1.4528,1.4864,1.4728,1.4774,1.4934,1.5011,1.5038,1.5098,1.5267,1.5298,1.5175,1.5431,1.5467,1.5593,1.5615,1.5615,1.5627,1.593,1.5931,1.5933,1.5834,0,0,0,0,0,0,1.4477,1.4523,1.4554,1.4727,1.478,1.4963,1.5012,1.5044,1.5119,1.5129,1.5305,1.5334,1.5434,1.5573,1.5605,1.5632,1.5637,1.5929,1.5931,1.5932,1.5836,1.5832,1.5828,0,0,0,0,0,1.4461,1.4516,1.4555,1.4593,1.4822,1.4964,1.4995,1.5105,1.512,1.5155,1.5264,1.5328,1.5606,1.5584,1.5622,1.5653,1.5928,1.593,1.5932,1.5838,1.5832,1.5828,0,0,0,0,0,0,1.4344,1.4541,1.4586,1.4697,1.4812,1.4987,1.5034,1.5096,1.5212,1.5216,1.5353,1.5391,1.5506,1.5593,1.5565,1.575,1.5774,1.5783,1.5689,1.5685,1.5681,1.5659,1.5647,0,0,0,0,0,1.433,1.4425,1.4594,1.4676,1.4731,1.4872,1.4938,1.5013,1.514,1.519,1.5308,1.5431,1.5548,1.5621,1.5737,1.5849,1.5892,1.589,1.5885,1.5881,1.5889,1.5959,1.5961,1.594,1.594,1.594,0,0,1.4305,1.4424,1.4476,1.4655,1.4753,1.4853,1.4912,1.5014,1.5091,1.5207,1.5333,1.5424,1.5571,1.5691,1.575,1.5767,1.5904,1.5884,1.5879,1.589,1.5961,1.5963,1.5965,1.5941,1.5941,1.5941,0,0,1.4309,1.4406,1.4487,1.4584,1.4731,1.4825,1.4844,1.501,1.5074,1.5202,1.5292,1.5387,1.5583,1.5685,1.5762,1.5808,1.5873,1.5842,1.5822,1.5889,1.5891,1.5893,1.5913,1.5918,1.5848,1.5848,1.5848,0,1.4259,1.4408,1.4522,1.4619,1.4698,1.4804,1.489,1.498,1.5158,1.5212,1.5227,1.5476,1.5583,1.573,1.5741,1.5799,1.583,1.5823,1.588,1.5884,1.5888,1.5908,1.5915,1.5844,1.5844,1.5845,1.5845,0,1.4342,1.4445,1.4493,1.4659,1.4744,1.4834,1.4966,1.5038,1.5107,1.52,1.5332,1.5464,1.5609,1.565,1.5719,1.5809,1.5815,1.5853,1.5881,1.5883,1.5905,1.5914,1.5837,1.5839,1.584,1.5841,0,0,1.428,1.4508,1.4524,1.4603,1.4774,1.4858,1.4956,1.5096,1.5157,1.5277,1.5366,1.553,1.5567,1.5655,1.5737,1.5795,1.5828,1.5828,1.5834,1.5826,1.594,1.5911,1.5918,1.5871,1.5873,1.5874,1.5929,0,1.4309,1.4485,1.4592,1.4727,1.4826,1.493,1.5017,1.5133,1.5224,1.5325,1.5428,1.5543,1.5581,1.5636,1.5698,1.581,1.5853,1.5807,1.596,1.5964,1.5921,1.5929,1.5899,1.5943,1.5938,1.5939,1.594,0,1.4367,1.4482,1.4626,1.4789,1.4835,1.4909,1.5048,1.5141,1.5278,1.5341,1.5439,1.5522,1.5635,1.5652,1.5812,1.5779,1.5848,1.5913,1.5918,1.5938,1.5953,1.5952,1.596,1.5967,1.5954,1.5953,1.5952,0,1.431,1.4502,1.4614,1.4678,1.4869,1.492,1.5004,1.514,1.5218,1.534,1.5394,1.5528,1.5603,1.5708,1.5827,1.5827,1.5977,1.6003,1.6036,1.6033,1.6065,1.6061,1.6086,1.6104,1.6104,1.6104,1.6104,0,1.4333,1.4418,1.4591,1.466,1.476,1.4884,1.4981,1.5073,1.5194,1.5286,1.5386,1.5471,1.5622,1.5727,1.5822,1.5943,1.5975,1.6032,1.6057,1.6025,1.6018,1.6073,1.6074,1.6106,1.6105,1.6105,1.6105,0,1.4287,1.4406,1.4535,1.4706,1.4752,1.4818,1.4967,1.5041,1.5137,1.5253,1.5288,1.5441,1.5571,1.5699,1.5874,1.5938,1.6059,1.609,1.6011,1.6026,1.6053,1.605,1.6116,1.6133,1.6136,1.6136,1.6136,0,1.4295,1.4362,1.454,1.4608,1.4688,1.4795,1.4875,1.5001,1.5082,1.5244,1.5299,1.5436,1.5552,1.5756,1.5885,1.6021,1.6059,1.6073,1.608,1.6047,1.6063,1.6058,1.6068,1.6069,1.6069,1.6068,1.6067,0,1.4297,1.4353,1.4462,1.4594,1.4686,1.4796,1.491,1.4961,1.511,1.5196,1.5328,1.5418,1.5597,1.5733,1.5885,1.5976,1.6049,1.6064,1.608,1.6049,1.6001,1.6031,1.6004,1.6062,1.6063,1.6063,1.6063,1.6064,1.4281,1.4347,1.4483,1.4603,1.4702,1.4807,1.4885,1.4991,1.5102,1.5255,1.5324,1.5458,1.5599,1.5809,1.5899,1.601,1.6029,1.605,1.6056,1.606,1.6055,1.5981,1.6038,1.6038,1.6039,1.6039,1.6039,0,1.4291,1.4383,1.4492,1.4648,1.4744,1.4799,1.493,1.5008,1.5123,1.5246,1.5358,1.5513,1.5646,1.5786,1.5929,1.5991,1.6028,1.6025,1.6023,1.6044,1.6028,1.6002,1.5992,1.5992,1.5992,1.5992,1.5992,1.5992,1.4307,1.4423,1.4495,1.4663,1.4757,1.4887,1.4957,1.5057,1.5155,1.5322,1.5432,1.5522,1.5654,1.5807,1.5934,1.5973,1.6022,1.601,1.6058,1.6041,1.6044,1.6047,1.6023,1.6019,1.6019,1.6065,1.6065,1.6066]}]]